Latest Weather Observations for South Channel Island

IDV60901

Issued at 11:35 pm EST Wednesday 17 September 2014 (issued every 10 minutes, with the page automatically refreshed every 10 minutes)

About weather observations | Map of Melbourne area stations | Latest observations for Melbourne area | Other Formats
Station Details ID: 086344 Name: SOUTH CHANNEL ISLAND Lat: -38.31 Lon: 144.80 Height: 9.0 m
Data from the previous 72 hours. | See also: Recent months for locations in Victoria
Date/Time
EST
Tmp

°C
App
Tmp
°C
Dew
Point
°C
Rel
Hum
%
Delta-T

°C
Wind Press
QNH
hPa
Press
MSL
hPa
Rain
since
9 am
mm
Dir
 
Spd
km/h
Gust
km/h
Spd
kts
Gust
kts
17/11:30pm - - - - - W 41 50 22 27 - - -
17/11:00pm - - - - - WNW 39 50 21 27 - - -
17/10:50pm - - - - - WNW 37 39 20 21 - - -
17/10:30pm - - - - - WSW 43 57 23 31 - - -
17/10:00pm - - - - - W 41 54 22 29 - - -
17/09:30pm - - - - - WNW 35 41 19 22 - - -
17/09:28pm - - - - - WNW 35 39 19 21 - - -
17/09:00pm - - - - - WSW 39 50 21 27 - - -
17/08:30pm - - - - - W 39 48 21 26 - - -
17/08:00pm - - - - - W 41 50 22 27 - - -
17/07:33pm - - - - - WSW 43 61 23 33 - - -
17/07:30pm - - - - - WSW 50 67 27 36 - - -
17/07:19pm - - - - - W 43 63 23 34 - - -
17/07:00pm - - - - - WSW 39 48 21 26 - - -
17/06:31pm - - - - - WSW 48 67 26 36 - - -
17/06:30pm - - - - - WSW 46 56 25 30 - - -
17/06:19pm - - - - - W 48 54 26 29 - - -
17/06:00pm - - - - - SW 54 69 29 37 - - -
17/05:53pm - - - - - SW 50 69 27 37 - - -
17/05:30pm - - - - - WSW 46 59 25 32 - - -
17/05:03pm - - - - - SW 48 74 26 40 - - -
17/05:00pm - - - - - SW 44 59 24 32 - - -
17/04:30pm - - - - - SW 57 72 31 39 - - -
17/04:00pm - - - - - SW 57 70 31 38 - - -
17/03:38pm - - - - - W 54 72 29 39 - - -
17/03:30pm - - - - - WSW 57 72 31 39 - - -
17/03:00pm - - - - - WSW 57 74 31 40 - - -
17/02:55pm - - - - - WSW 56 74 30 40 - - -
17/02:30pm - - - - - WSW 57 70 31 38 - - -
17/02:00pm - - - - - WSW 52 70 28 38 - - -
17/01:30pm - - - - - WSW 52 72 28 39 - - -
17/01:00pm - - - - - WSW 48 59 26 32 - - -
17/12:30pm - - - - - WSW 41 50 22 27 - - -
17/12:00pm - - - - - WSW 48 61 26 33 - - -
17/11:30am - - - - - WSW 54 69 29 37 - - -
17/11:16am - - - - - SW 57 65 31 35 - - -
17/11:00am - - - - - W 39 48 21 26 - - -
17/10:30am - - - - - W 41 50 22 27 - - -
17/10:00am - - - - - W 43 52 23 28 - - -
17/09:30am - - - - - W 44 54 24 29 - - -
17/09:00am - - - - - W 43 50 23 27 - - -
17/08:30am - - - - - WNW 44 52 24 28 - - -
17/08:00am - - - - - WNW 39 46 21 25 - - -
17/07:30am - - - - - WNW 39 46 21 25 - - -
17/07:00am - - - - - WNW 37 43 20 23 - - -
17/06:30am - - - - - WNW 32 39 17 21 - - -
17/06:00am - - - - - W 35 39 19 21 - - -
17/05:30am - - - - - WNW 41 50 22 27 - - -
17/05:00am - - - - - WNW 39 46 21 25 - - -
17/04:30am - - - - - WNW 39 46 21 25 - - -
17/04:00am - - - - - WNW 35 39 19 21 - - -
17/03:30am - - - - - WNW 30 33 16 18 - - -
17/03:00am - - - - - WNW 28 32 15 17 - - -
17/02:30am - - - - - WNW 32 37 17 20 - - -
17/02:00am - - - - - WNW 32 37 17 20 - - -
17/01:30am - - - - - WNW 26 32 14 17 - - -
17/01:00am - - - - - WNW 24 32 13 17 - - -
17/12:30am - - - - - NW 28 32 15 17 - - -
17/12:00am - - - - - WNW 28 30 15 16 - - -
 
Date/Time
EST
Tmp

°C
App
Tmp
°C
Dew
Point
°C
Rel
Hum
%
Delta-T

°C
Wind Press
QNH
hPa
Press
MSL
hPa
Rain
since
9 am
mm
Dir
 
Spd
km/h
Gust
km/h
Spd
kts
Gust
kts
16/11:30pm - - - - - NW 24 28 13 15 - - -
16/11:00pm - - - - - WNW 22 26 12 14 - - -
16/10:30pm - - - - - WNW 24 28 13 15 - - -
16/10:00pm - - - - - W 24 28 13 15 - - -
16/09:30pm - - - - - WSW 26 30 14 16 - - -
16/09:00pm - - - - - SW 30 33 16 18 - - -
16/08:30pm - - - - - SW 33 37 18 20 - - -
16/08:00pm - - - - - WSW 33 41 18 22 - - -
16/07:30pm - - - - - WSW 37 43 20 23 - - -
16/07:00pm - - - - - WSW 39 44 21 24 - - -
16/06:30pm - - - - - WSW 44 52 24 28 - - -
16/06:00pm - - - - - SW 48 56 26 30 - - -
16/05:30pm - - - - - SW 44 52 24 28 - - -
16/05:00pm - - - - - SW 48 57 26 31 - - -
16/04:30pm - - - - - SW 46 56 25 30 - - -
16/04:00pm - - - - - SW 52 61 28 33 - - -
16/03:30pm - - - - - WSW 52 57 28 31 - - -
16/03:00pm - - - - - - - - - - - - -
16/02:30pm - - - - - SW 52 61 28 33 - - -
16/02:00pm - - - - - SW 48 56 26 30 - - -
16/01:30pm - - - - - SW 48 56 26 30 - - -
16/01:00pm - - - - - SW 44 56 24 30 - - -
16/12:30pm - - - - - SW 35 50 19 27 - - -
16/12:29pm - - - - - SW 33 50 18 27 - - -
16/12:00pm - - - - - SW 26 30 14 16 - - -
16/11:30am - - - - - SSW 22 24 12 13 - - -
16/11:00am - - - - - SSW 26 28 14 15 - - -
16/10:30am - - - - - SW 20 26 11 14 - - -
16/10:00am - - - - - SW 20 28 11 15 - - -
16/09:30am - - - - - SSW 15 17 8 9 - - -
16/09:00am - - - - - S 13 17 7 9 - - -
16/08:30am - - - - - S 22 26 12 14 - - -
16/08:00am - - - - - SSW 24 28 13 15 - - -
16/07:30am - - - - - SW 24 28 13 15 - - -
16/07:00am - - - - - SW 24 28 13 15 - - -
16/06:30am - - - - - W 17 20 9 11 - - -
16/06:00am - - - - - WSW 13 17 7 9 - - -
16/05:30am - - - - - W 9 13 5 7 - - -
16/05:00am - - - - - W 9 13 5 7 - - -
16/04:30am - - - - - WSW 13 15 7 8 - - -
16/04:00am - - - - - W 11 15 6 8 - - -
16/03:30am - - - - - W 9 13 5 7 - - -
16/03:00am - - - - - E 9 17 5 9 - - -
16/02:30am - - - - - ESE 28 35 15 19 - - -
16/02:00am - - - - - ESE 15 26 8 14 - - -
16/01:30am - - - - - E 41 54 22 29 - - -
16/01:00am - - - - - E 41 50 22 27 - - -
16/12:30am - - - - - E 43 52 23 28 - - -
16/12:00am - - - - - E 46 54 25 29 - - -
 
Date/Time
EST
Tmp

°C
App
Tmp
°C
Dew
Point
°C
Rel
Hum
%
Delta-T

°C
Wind Press
QNH
hPa
Press
MSL
hPa
Rain
since
9 am
mm
Dir
 
Spd
km/h
Gust
km/h
Spd
kts
Gust
kts
15/11:30pm - - - - - E 50 57 27 31 - - -
15/11:00pm - - - - - E 52 63 28 34 - - -
15/10:30pm - - - - - E 48 59 26 32 - - -
15/10:00pm - - - - - E 48 56 26 30 - - -
15/09:30pm - - - - - E 52 61 28 33 - - -
15/09:00pm - - - - - E 48 59 26 32 - - -
15/08:30pm - - - - - E 43 50 23 27 - - -
15/08:00pm - - - - - E 32 37 17 20 - - -
15/07:30pm - - - - - E 32 39 17 21 - - -
15/07:00pm - - - - - E 30 33 16 18 - - -
15/06:30pm - - - - - E 30 35 16 19 - - -
15/06:00pm - - - - - ESE 22 33 12 18 - - -
15/05:30pm - - - - - ESE 28 33 15 18 - - -
15/05:00pm - - - - - ESE 37 48 20 26 - - -
15/04:53pm - - - - - ESE 35 46 19 25 - - -
15/04:30pm - - - - - SE 22 28 12 15 - - -
15/04:00pm - - - - - ESE 28 35 15 19 - - -
15/03:30pm - - - - - SE 24 28 13 15 - - -
15/03:00pm - - - - - SE 30 33 16 18 - - -
15/02:30pm - - - - - SE 28 32 15 17 - - -
15/02:00pm - - - - - SSE 24 28 13 15 - - -
15/01:30pm - - - - - SSE 28 28 15 15 - - -
15/01:00pm - - - - - SSE 19 20 10 11 - - -
15/12:30pm - - - - - SE 9 11 5 6 - - -
15/12:00pm - - - - - ESE 9 11 5 6 - - -
15/11:30am - - - - - E 15 19 8 10 - - -
15/11:00am - - - - - E 11 13 6 7 - - -
15/10:30am - - - - - ENE 13 15 7 8 - - -
15/10:00am - - - - - ENE 20 22 11 12 - - -
15/09:30am - - - - - E 19 22 10 12 - - -
15/09:00am - - - - - E 20 24 11 13 - - -
15/08:30am - - - - - ESE 13 17 7 9 - - -
15/08:00am - - - - - ESE 15 19 8 10 - - -
15/07:30am - - - - - E 15 17 8 9 - - -
15/07:00am - - - - - E 13 19 7 10 - - -
15/06:30am - - - - - E 9 13 5 7 - - -
15/06:00am - - - - - ESE 9 11 5 6 - - -
15/05:30am - - - - - SSE 13 15 7 8 - - -
15/05:00am - - - - - SSE 7 9 4 5 - - -
15/04:30am - - - - - ESE 9 13 5 7 - - -
15/04:00am - - - - - ESE 13 17 7 9 - - -
15/03:30am - - - - - ESE 9 13 5 7 - - -
15/03:00am - - - - - E 7 9 4 5 - - -
15/02:30am - - - - - ESE 7 9 4 5 - - -
15/02:00am - - - - - SE 13 13 7 7 - - -
15/01:30am - - - - - E 6 7 3 4 - - -
15/01:00am - - - - - ENE 7 7 4 4 - - -
15/12:30am - - - - - SE 7 7 4 4 - - -
15/12:00am - - - - - CALM 0 0 0 0 - - -

Latest Capital City Observations: Canberra | Sydney | Melbourne | Brisbane | Adelaide | Perth | Hobart | Darwin

Other Formats:

Comma delimited format used in spreadsheet applications
http://www.bom.gov.au/fwo/IDV60901/IDV60901.94853.axf

JavaScript Object Notation format (JSON) in row-major order
http://www.bom.gov.au/fwo/IDV60901/IDV60901.94853.json